Hourly Weather Barovo

Today, 21 September, Monday

Time Temperature Precipitation Wind Pressure Humidity
00:00 +10°C° 0 mm 1 mps 754 mmHg 76%
01:00 +10°C° 0 mm 1 mps 754 mmHg 78%
02:00 +8°C° 0 mm 2 mps 755 mmHg 80%
03:00 +8°C° 0 mm 2 mps 754 mmHg 83%
04:00 +8°C° 0 mm 2 mps 754 mmHg 85%
05:00 +9°C° 0 mm 1 mps 754 mmHg 88%
06:00 +9°C° 0 mm 2 mps 754 mmHg 86%
07:00 +10°C° 0 mm 2 mps 754 mmHg 83%
08:00 +13°C° 0 mm 2 mps 754 mmHg 81%
09:00 +14°C° 0 mm 2 mps 754 mmHg 76%
10:00 +16°C° 0 mm 2 mps 754 mmHg 71%
11:00 +18°C° 0 mm 2 mps 754 mmHg 66%
12:00 +19°C° 0 mm 2 mps 754 mmHg 63%
13:00 +20°C° 0 mm 3 mps 754 mmHg 61%
14:00 +20°C° 0 mm 3 mps 753 mmHg 59%
15:00 +20°C° 0 mm 3 mps 753 mmHg 63%
16:00 +19°C° 0 mm 2 mps 753 mmHg 67%
17:00 +19°C° 0 mm 2 mps 752 mmHg 71%
18:00 +17°C° 0 mm 2 mps 752 mmHg 75%
19:00 +16°C° 0 mm 2 mps 752 mmHg 79%
20:00 +14°C° 0 mm 2 mps 752 mmHg 83%
21:00 +13°C° 0 mm 2 mps 752 mmHg 84%
22:00 +13°C° 0 mm 2 mps 752 mmHg 84%
23:00 +12°C° 0 mm 2 mps 752 mmHg 84%

Tomorrow, 22 September, Tuesday

Time Temperature Precipitation Wind Pressure Humidity
00:00 +12°C° 0 mm 2 mps 752 mmHg 84%
01:00 +12°C° 0 mm 2 mps 752 mmHg 84%
02:00 +12°C° 0 mm 2 mps 752 mmHg 84%
03:00 +10°C° 0 mm 2 mps 752 mmHg 85%
04:00 +10°C° 0 mm 2 mps 751 mmHg 86%
05:00 +10°C° 0 mm 2 mps 751 mmHg 86%
06:00 +12°C° 0 mm 2 mps 751 mmHg 84%
07:00 +13°C° 0 mm 2 mps 751 mmHg 81%
08:00 +14°C° 0 mm 2 mps 751 mmHg 78%
09:00 +16°C° 0 mm 2 mps 751 mmHg 72%
10:00 +18°C° 0 mm 3 mps 751 mmHg 67%
11:00 +20°C° 0 mm 3 mps 751 mmHg 61%
12:00 +21°C° 0 mm 3 mps 751 mmHg 59%
13:00 +22°C° 0 mm 3 mps 751 mmHg 56%
14:00 +23°C° 0 mm 4 mps 750 mmHg 54%
15:00 +22°C° 0 mm 3 mps 750 mmHg 59%
16:00 +21°C° 0 mm 2 mps 750 mmHg 63%
17:00 +21°C° 0 mm 2 mps 749 mmHg 68%
18:00 +19°C° 0 mm 2 mps 749 mmHg 73%
19:00 +17°C° 0 mm 2 mps 749 mmHg 78%
20:00 +16°C° 0 mm 2 mps 749 mmHg 82%
21:00 +15°C° 0 mm 2 mps 749 mmHg 82%
22:00 +15°C° 0 mm 2 mps 749 mmHg 83%
23:00 +14°C° 0 mm 2 mps 749 mmHg 83%

Day after tomorrow, 23 September, Wednesday

Time Temperature Precipitation Wind Pressure Humidity
00:00 +14°C° 0 mm 2 mps 749 mmHg 84%
01:00 +14°C° 0 mm 2 mps 749 mmHg 86%
02:00 +13°C° 0 mm 2 mps 749 mmHg 87%
03:00 +13°C° 0 mm 2 mps 749 mmHg 88%
04:00 +13°C° 0 mm 2 mps 748 mmHg 90%
05:00 +13°C° 0 mm 2 mps 748 mmHg 91%
06:00 +12°C° 0 mm 3 mps 748 mmHg 84%
07:00 +13°C° 0 mm 3 mps 748 mmHg 78%
08:00 +14°C° 0 mm 3 mps 748 mmHg 71%
09:00 +17°C° 0 mm 4 mps 748 mmHg 65%
10:00 +18°C° 0 mm 4 mps 748 mmHg 59%
11:00 +20°C° 0 mm 4 mps 747 mmHg 53%
12:00 +21°C° 0 mm 4 mps 747 mmHg 51%
13:00 +22°C° 0 mm 4 mps 747 mmHg 49%
14:00 +23°C° 0 mm 4 mps 747 mmHg 47%
15:00 +22°C° 0 mm 4 mps 747 mmHg 51%
16:00 +21°C° 0 mm 4 mps 746 mmHg 56%
17:00 +20°C° 0 mm 3 mps 746 mmHg 61%
18:00 +19°C° 0 mm 3 mps 746 mmHg 64%
19:00 +17°C° 0 mm 3 mps 746 mmHg 68%
20:00 +16°C° 0 mm 3 mps 746 mmHg 71%
21:00 +14°C° 0 mm 3 mps 746 mmHg 70%
22:00 +14°C° 0 mm 3 mps 746 mmHg 69%
23:00 +13°C° 0 mm 3 mps 746 mmHg 68%

24 September, Thursday

Time Temperature Precipitation Wind Pressure Humidity
00:00 +13°C° 0 mm 3 mps 746 mmHg 70%
01:00 +12°C° 0 mm 3 mps 746 mmHg 72%
02:00 +12°C° 0 mm 3 mps 746 mmHg 74%
03:00 +12°C° 0 mm 3 mps 746 mmHg 75%
04:00 +11°C° 0 mm 3 mps 746 mmHg 77%
05:00 +11°C° 0 mm 3 mps 746 mmHg 79%
06:00 +12°C° 0 mm 3 mps 746 mmHg 75%
07:00 +13°C° 0 mm 3 mps 747 mmHg 71%
08:00 +14°C° 0 mm 4 mps 747 mmHg 67%
09:00 +15°C° 0 mm 4 mps 747 mmHg 61%
10:00 +18°C° 0 mm 4 mps 747 mmHg 55%
11:00 +20°C° 0 mm 4 mps 747 mmHg 49%
12:00 +21°C° 0 mm 4 mps 747 mmHg 47%
13:00 +22°C° 0 mm 4 mps 747 mmHg 45%
14:00 +23°C° 0 mm 4 mps 747 mmHg 43%
15:00 +22°C° 0 mm 4 mps 747 mmHg 48%
16:00 +21°C° 0 mm 3 mps 747 mmHg 53%
17:00 +20°C° 0 mm 3 mps 747 mmHg 59%
18:00 +19°C° 0 mm 3 mps 747 mmHg 63%
19:00 +17°C° 0 mm 3 mps 747 mmHg 67%
20:00 +16°C° 0 mm 3 mps 747 mmHg 70%
21:00 +14°C° 0 mm 3 mps 747 mmHg 71%
22:00 +14°C° 0 mm 3 mps 748 mmHg 72%
23:00 +14°C° 0 mm 3 mps 748 mmHg 73%

25 September, Friday

Time Temperature Precipitation Wind Pressure Humidity
00:00 +13°C° 0 mm 3 mps 748 mmHg 74%
01:00 +13°C° 0 mm 3 mps 748 mmHg 75%
02:00 +13°C° 0 mm 3 mps 747 mmHg 76%
03:00 +12°C° 0 mm 3 mps 747 mmHg 77%
04:00 +12°C° 0 mm 3 mps 747 mmHg 77%
05:00 +12°C° 0 mm 3 mps 747 mmHg 78%
06:00 +13°C° 0 mm 3 mps 747 mmHg 76%
07:00 +14°C° 0 mm 3 mps 747 mmHg 73%
08:00 +14°C° 0 mm 4 mps 747 mmHg 71%
09:00 +17°C° 0 mm 4 mps 747 mmHg 66%
10:00 +19°C° 0 mm 4 mps 747 mmHg 62%
11:00 +21°C° 0 mm 5 mps 747 mmHg 57%
12:00 +22°C° 0 mm 5 mps 747 mmHg 55%
13:00 +23°C° 0 mm 5 mps 746 mmHg 52%
14:00 +25°C° 0 mm 5 mps 746 mmHg 50%
15:00 +23°C° 0 mm 5 mps 746 mmHg 53%
16:00 +22°C° 0 mm 4 mps 745 mmHg 57%
17:00 +21°C° 0 mm 4 mps 745 mmHg 60%
18:00 +20°C° 0 mm 4 mps 745 mmHg 60%
19:00 +20°C° 0 mm 4 mps 744 mmHg 60%
20:00 +19°C° 0 mm 5 mps 744 mmHg 59%
21:00 +17°C° 0 mm 5 mps 744 mmHg 59%
22:00 +17°C° 0 mm 5 mps 744 mmHg 59%
23:00 +17°C° 0 mm 5 mps 744 mmHg 59%

26 September, Saturday

Time Temperature Precipitation Wind Pressure Humidity
00:00 +17°C° 0 mm 5 mps 744 mmHg 59%
01:00 +16°C° 0 mm 5 mps 743 mmHg 59%
02:00 +16°C° 0 mm 5 mps 743 mmHg 59%
03:00 +15°C° 0 mm 5 mps 742 mmHg 59%
04:00 +15°C° 0 mm 5 mps 742 mmHg 60%
05:00 +14°C° 0 mm 5 mps 742 mmHg 60%
06:00 +15°C° 0 mm 6 mps 741 mmHg 60%
07:00 +15°C° 0 mm 6 mps 741 mmHg 61%
08:00 +15°C° 0 mm 6 mps 741 mmHg 62%
09:00 +17°C° 0 mm 7 mps 741 mmHg 60%
10:00 +20°C° 0 mm 7 mps 741 mmHg 58%
11:00 +21°C° 0 mm 7 mps 741 mmHg 56%
12:00 +22°C° 0 mm 7 mps 741 mmHg 56%
13:00 +22°C° 0 mm 6 mps 741 mmHg 55%
14:00 +23°C° 0 mm 6 mps 741 mmHg 54%
15:00 +22°C° 0 mm 5 mps 741 mmHg 56%
16:00 +22°C° 0 mm 5 mps 741 mmHg 58%
17:00 +21°C° 0 mm 5 mps 741 mmHg 59%
18:00 +21°C° 0 mm 5 mps 741 mmHg 60%
19:00 +20°C° 0 mm 5 mps 741 mmHg 60%
20:00 +20°C° 0 mm 5 mps 741 mmHg 61%
21:00 +20°C° 0 mm 5 mps 741 mmHg 60%
22:00 +20°C° 0 mm 5 mps 741 mmHg 59%
23:00 +20°C° 0 mm 5 mps 741 mmHg 58%
Show more